Location: Claremont
(33.9858°S, 18.4575°E)
Time: 11:14:43
(UTC+00:00)

SJ-6B - Pass Details

Date: 03 March 2021
Orbit: 509 x 581 km, 97.6° (Epoch: 21 April)

Event Time Altitude Azimuth Distance (km) Brightness Sun altitude
Rises 18:55:17 0° 160° (SSE) 2,783 6.5 -19.9°
Reaches altitude 10° 18:57:32 10° 152° (SSE) 1,889 5.5 -20.3°
Enters shadow 18:59:14 22° 138° (SE) 1,279 4.5 -20.6°
